"Period start","avg(HW err(1)/warn(2) (#))","avg(Visibility (m))","avg(Weather code (#))","avg(Precip intensity (mm/h))","min(HW err(1)/warn(2) (#))","max(HW err(1)/warn(2) (#))","std(HW err(1)/warn(2) (#))","med(HW err(1)/warn(2) (#))","min(Visibility (m))","max(Visibility (m))","std(Visibility (m))","med(Visibility (m))","min(Weather code (#))","max(Weather code (#))","std(Weather code (#))","med(Weather code (#))","min(Precip intensity (mm/h))","max(Precip intensity (mm/h))","std(Precip intensity (mm/h))","med(Precip intensity (mm/h))"
2017-10-16 00:00:00,2,2185,73,0.20,2,2,0,2,1975,2428,155,2174,67,77,5,77,0.15,0.25,0.04,0.20
2017-10-16 00:10:00,2,2848,73,0.18,2,2,0,2,2256,3466,412,3018,71,77,3,71,0.15,0.30,0.05,0.15
2017-10-16 00:20:00,2,3110,72,0.13,2,2,0,2,2765,3648,263,3104,67,77,5,72,0.05,0.20,0.04,0.15
2017-10-16 00:30:00,2,3349,77,0.08,2,2,0,2,2745,3703,319,3496,77,77,0,77,0.05,0.15,0.03,0.08
2017-10-16 00:40:00,2,2071,77,0.14,2,2,0,2,1909,2532,183,1998,77,77,0,77,0.10,0.20,0.04,0.15
2017-10-16 00:50:00,2,1828,71,0.15,2,2,0,2,1556,1959,115,1855,67,77,5,67,0.10,0.25,0.04,0.15
2017-10-16 01:00:00,2,1677,68,0.17,2,2,0,2,1616,1768,46,1674,67,77,3,67,0.10,0.25,0.04,0.15
2017-10-16 01:10:00,2,1716,72,0.19,2,2,0,2,1353,1870,137,1748,67,77,5,74,0.05,0.30,0.08,0.23
2017-10-16 01:20:00,2,1771,76,0.29,2,2,0,2,1624,1933,96,1742,71,77,2,77,0.10,0.75,0.20,0.20
2017-10-16 01:30:00,2,1992,76,0.28,2,2,0,2,1645,2247,189,2072,71,77,2,77,0.05,0.75,0.20,0.28
2017-10-16 01:40:00,2,2321,72,0.29,2,2,0,2,2170,2496,111,2308,71,77,2,71,0.10,0.60,0.16,0.25
2017-10-16 01:50:00,2,3164,77,0.30,2,2,0,2,2188,4287,651,3164,77,77,0,77,0.20,0.45,0.07,0.30
2017-10-16 02:00:00,2,2521,71,0.20,2,2,0,2,2074,3433,388,2377,71,71,0,71,0.10,0.30,0.08,0.17
2017-10-16 02:10:00,2,3378,71,0.27,2,2,0,2,2887,3897,338,3392,71,71,0,71,0.15,0.55,0.11,0.23
2017-10-16 02:20:00,2,4613,71,0.57,2,2,0,2,3021,6532,1286,4649,71,71,0,71,0.15,1.45,0.41,0.50
2017-10-16 02:30:00,2,4602,71,0.72,2,2,0,2,3522,6211,773,4428,71,71,0,71,0.10,1.25,0.35,0.78
2017-10-16 02:40:00,2,4294,71,0.66,2,2,0,2,2793,5714,834,4224,71,71,0,71,0.10,1.50,0.52,0.57
2017-10-16 02:50:00,2,5045,71,0.58,2,2,0,2,3317,6191,812,5186,71,71,0,71,0.15,1.20,0.34,0.60
2017-10-16 03:00:00,2,7652,71,0.51,2,2,0,2,3323,11279,2543,6928,71,71,0,71,0.05,2.15,0.60,0.33
2017-10-16 03:10:00,2,5237,71,1.02,2,2,0,2,3183,8153,1697,4738,71,71,0,71,0.20,2.00,0.60,1.02
2017-10-16 03:20:00,2,5856,71,0.51,2,2,0,2,4468,7165,932,6178,71,71,0,71,0.10,1.60,0.44,0.30
2017-10-16 03:30:00,2,6997,71,0.36,2,2,0,2,5373,9001,1047,7046,71,71,0,71,0.05,0.85,0.29,0.23
2017-10-16 03:40:00,2,5062,71,0.30,2,2,0,2,4146,6192,619,4972,71,71,0,71,0.10,0.55,0.15,0.25
2017-10-16 03:50:00,2,3635,71,0.42,2,2,0,2,2690,4309,528,3688,71,71,0,71,0.20,0.90,0.22,0.33
2017-10-16 04:00:00,2,3062,71,0.36,2,2,0,2,2303,3609,399,3147,71,71,0,71,0.20,0.60,0.12,0.33
2017-10-16 04:10:00,2,5203,76,0.23,2,2,0,2,3739,7743,1255,5052,71,77,2,77,0.10,0.35,0.08,0.25
2017-10-16 04:20:00,2,5113,77,0.14,2,2,0,2,2894,7313,1245,5160,77,77,0,77,0.05,0.35,0.10,0.10
2017-10-16 04:30:00,2,7126,72,0.26,2,2,0,2,5111,9161,1304,6824,71,77,2,71,0.05,0.55,0.17,0.20
2017-10-16 04:40:00,2,15548,71,0.07,2,2,0,2,9856,20836,3363,16396,71,71,0,71,0.00,0.15,0.05,0.08
2017-10-16 04:50:00,2,14138,71,0.06,2,2,0,2,10556,18388,2106,14324,71,71,0,71,0.00,0.20,0.06,0.05
2017-10-16 05:00:00,2,12804,71,0.10,2,2,0,2,10038,15569,1411,12587,71,71,0,71,0.00,0.45,0.14,0.05
2017-10-16 05:10:00,2,13743,71,0.07,2,2,0,2,10763,16035,1874,14542,71,71,0,71,0.00,0.35,0.10,0.05
2017-10-16 05:20:00,2,11477,73,0.07,2,2,0,2,9762,12584,842,11555,71,77,3,71,0.00,0.25,0.07,0.05
2017-10-16 05:30:00,2,7888,71,0.14,2,2,0,2,4616,13112,2423,7970,71,71,0,71,0.00,0.35,0.10,0.12
2017-10-16 05:40:00,2,4896,71,0.27,2,2,0,2,3123,7378,1382,4386,71,71,0,71,0.05,0.70,0.20,0.17
2017-10-16 05:50:00,2,7164,71,0.15,2,2,0,2,6328,8867,745,6910,71,71,0,71,0.05,0.25,0.07,0.15
2017-10-16 06:00:00,2,6077,71,0.17,2,2,0,2,4608,7403,892,6110,71,71,0,71,0.05,0.55,0.15,0.12
2017-10-16 06:10:00,2,4548,71,0.54,2,2,0,2,2400,7618,1818,4038,71,71,0,71,0.10,1.10,0.32,0.57
2017-10-16 06:20:00,2,5996,71,0.83,2,2,0,2,3757,8047,1531,6240,71,71,0,71,0.10,2.10,0.59,0.65
2017-10-16 06:30:00,2,9470,71,0.35,2,2,0,2,7497,11635,1528,9603,71,71,0,71,0.05,1.10,0.30,0.28
2017-10-16 06:40:00,2,8341,71,0.43,2,2,0,2,5825,10274,1227,8576,71,71,0,71,0.10,0.95,0.27,0.33
2017-10-16 06:50:00,2,7533,71,0.67,2,2,0,2,5465,9510,1081,7377,71,71,0,71,0.35,1.25,0.29,0.60
2017-10-16 07:00:00,2,5958,71,1.18,2,2,0,2,3965,9432,1766,5398,71,71,0,71,0.55,2.60,0.61,1.02
2017-10-16 07:10:00,2,5264,71,1.35,2,2,0,2,4005,6937,832,5232,71,71,0,71,0.70,1.80,0.33,1.40
2017-10-16 07:20:00,2,6163,71,1.15,2,2,0,2,4692,7528,878,5886,71,71,0,71,0.80,1.75,0.28,1.02
2017-10-16 07:30:00,2,5614,71,1.11,2,2,0,2,4871,6759,617,5618,71,71,0,71,0.80,1.40,0.20,1.12
2017-10-16 07:40:00,2,5910,71,1.33,2,2,0,2,4243,8510,1201,5664,71,71,0,71,0.70,1.95,0.42,1.40
2017-10-16 07:50:00,2,6021,71,1.54,2,2,0,2,4144,8426,1616,5062,71,71,0,71,0.50,2.65,0.62,1.60
2017-10-16 08:00:00,2,9314,71,0.69,2,2,0,2,6479,10995,1138,9344,71,71,0,71,0.20,1.00,0.26,0.75
2017-10-16 08:10:00,2,14820,71,0.21,2,2,0,2,11184,19825,2784,13939,71,71,0,71,0.10,0.50,0.13,0.15
2017-10-16 08:20:00,2,6935,71,1.24,2,2,0,2,4411,10465,1614,6597,71,71,0,71,0.20,2.45,0.73,1.10
2017-10-16 08:30:00,2,7572,71,1.21,2,2,0,2,5510,10780,1841,6880,71,71,0,71,0.65,1.80,0.37,1.15
2017-10-16 08:40:00,2,16511,71,0.45,2,2,0,2,7369,25731,5307,17480,71,71,0,71,0.05,1.30,0.37,0.42
2017-10-16 08:50:00,2,8214,71,1.02,2,2,0,2,4490,16604,3641,6988,71,71,0,71,0.30,2.25,0.56,0.95
2017-10-16 09:00:00,2,5480,71,1.65,2,2,0,2,3866,7686,1155,5264,71,71,0,71,0.55,3.00,0.74,1.60
2017-10-16 09:10:00,2,5867,71,1.48,2,2,0,2,3362,10561,2019,5400,71,71,0,71,0.65,2.45,0.60,1.33
2017-10-16 09:20:00,2,13783,71,0.52,2,2,0,2,8675,18778,3352,13300,71,71,0,71,0.10,1.15,0.35,0.43
2017-10-16 09:30:00,2,23870,71,0.13,2,2,0,2,12373,42414,8050,22779,71,71,0,71,0.00,0.40,0.13,0.08
2017-10-16 09:40:00,2,3878,71,0.13,2,2,0,2,1652,12001,2912,2951,71,71,0,71,0.00,0.45,0.14,0.08
2017-10-16 09:50:00,2,6751,37,0.04,2,2,0,2,2133,12413,3612,6027,10,71,22,41,0.00,0.20,0.06,0.00
2017-10-16 10:00:00,2,5442,71,0.16,2,2,0,2,2882,11542,2622,4358,71,71,0,71,0.00,1.10,0.32,0.05
2017-10-16 10:10:00,2,2060,71,0.79,2,2,0,2,1649,3004,415,1847,71,71,0,71,0.05,1.70,0.49,0.82
2017-10-16 10:20:00,2,7022,71,0.23,2,2,0,2,2371,12089,3541,7774,71,71,0,71,0.00,0.65,0.20,0.17
2017-10-16 10:30:00,2,5747,73,0.14,2,2,0,2,2129,13822,3908,3963,71,77,3,71,0.00,0.40,0.11,0.12
2017-10-16 10:40:00,2,6911,71,1.18,2,2,0,2,1992,13413,3464,6560,71,71,0,71,0.15,4.10,1.25,0.62
2017-10-16 10:50:00,2,1800,71,4.75,2,2,0,2,1360,2261,240,1766,71,71,0,71,3.40,6.35,0.81,4.68
2017-10-16 11:00:00,2,8434,71,1.27,2,2,0,2,1945,13253,3729,10584,71,71,0,71,0.20,3.25,1.08,0.80
2017-10-16 11:10:00,2,15424,71,0.47,2,2,0,2,8995,21773,4600,15571,71,71,0,71,0.00,1.75,0.55,0.23
2017-10-16 11:20:00,2,7330,71,1.42,2,2,0,2,3569,15244,3411,6706,71,71,0,71,0.25,3.55,1.02,1.12
2017-10-16 11:30:00,2,4054,71,1.91,2,2,0,2,2613,6451,1150,4052,71,71,0,71,0.20,3.30,0.84,2.00
2017-10-16 11:40:00,2,7044,71,1.54,2,2,0,2,2753,12732,3666,6751,71,71,0,71,0.25,4.15,1.11,1.25
2017-10-16 11:50:00,2,9700,71,0.70,2,2,0,2,5808,16539,3616,9249,71,71,0,71,0.05,1.50,0.44,0.70
2017-10-16 12:00:00,2,12309,71,0.49,2,2,0,2,7119,17430,3370,11698,71,71,0,71,0.00,1.20,0.38,0.38
2017-10-16 12:10:00,2,12382,71,0.51,2,2,0,2,6408,17487,3752,12160,71,71,0,71,0.10,1.75,0.54,0.28
2017-10-16 12:20:00,2,25737,71,0.11,2,2,0,2,14277,34128,7239,27556,71,71,0,71,0.00,0.40,0.12,0.08
2017-10-16 12:30:00,2,26493,71,0.08,2,2,0,2,11603,39321,7809,26492,71,71,0,71,0.00,0.35,0.10,0.05
2017-10-16 12:40:00,2,3120,71,1.79,2,2,0,2,1957,7900,1827,2310,71,71,0,71,0.30,2.90,0.74,1.73
2017-10-16 12:50:00,2,3344,71,2.29,2,2,0,2,2112,5410,926,3202,71,71,0,71,1.15,5.10,1.11,1.93
2017-10-16 13:00:00,2,7024,71,1.15,2,2,0,2,2105,12260,2994,6722,71,71,0,71,0.10,3.35,0.98,0.80
2017-10-16 13:10:00,2,10767,71,0.35,2,2,0,2,8293,13018,1375,10914,71,71,0,71,0.15,0.50,0.11,0.40
2017-10-16 13:20:00,2,9571,71,0.71,2,2,0,2,5026,17154,3697,8698,71,71,0,71,0.05,1.55,0.48,0.70
2017-10-16 13:30:00,2,11580,71,0.77,2,2,0,2,4225,21263,5153,12647,71,71,0,71,0.05,1.75,0.60,0.50
2017-10-16 13:40:00,2,29113,71,0.11,2,2,0,2,13701,50000,12051,25824,71,71,0,71,0.00,0.50,0.16,0.03
2017-10-16 13:50:00,2,50000,11,0.00,2,2,0,2,50000,50000,0,50000,0,71,23,0,0.00,0.00,0.00,0.00
2017-10-16 14:00:00,2,49965,0,0.00,2,2,0,2,49651,50000,105,50000,0,0,0,0,0.00,0.00,0.00,0.00
2017-10-16 14:10:00,2,50000,0,0.00,2,2,0,2,50000,50000,0,50000,0,0,0,0,0.00,0.00,0.00,0.00
2017-10-16 14:20:00,2,50000,0,0.00,2,2,0,2,50000,50000,0,50000,0,0,0,0,0.00,0.00,0.00,0.00
2017-10-16 14:30:00,2,50000,0,0.00,2,2,0,2,50000,50000,0,50000,0,0,0,0,0.00,0.00,0.00,0.00
2017-10-16 14:40:00,2,50000,0,0.00,2,2,0,2,50000,50000,0,50000,0,0,0,0,0.00,0.00,0.00,0.00
2017-10-16 14:50:00,2,50000,0,0.00,2,2,0,2,50000,50000,0,50000,0,0,0,0,0.00,0.00,0.00,0.00
2017-10-16 15:00:00,2,50000,0,0.00,2,2,0,2,50000,50000,0,50000,0,0,0,0,0.00,0.00,0.00,0.00
2017-10-16 15:10:00,2,50000,0,0.00,2,2,0,2,50000,50000,0,50000,0,0,0,0,0.00,0.00,0.00,0.00
2017-10-16 15:20:00,2,50000,0,0.00,2,2,0,2,50000,50000,0,50000,0,0,0,0,0.00,0.00,0.00,0.00
2017-10-16 15:30:00,2,50000,0,0.00,2,2,0,2,50000,50000,0,50000,0,0,0,0,0.00,0.00,0.00,0.00
2017-10-16 15:40:00,2,50000,0,0.00,2,2,0,2,50000,50000,0,50000,0,0,0,0,0.00,0.00,0.00,0.00
2017-10-16 15:50:00,2,49946,0,0.00,2,2,0,2,49459,50000,162,50000,0,0,0,0,0.00,0.00,0.00,0.00
2017-10-16 16:00:00,2,43154,53,0.00,2,2,0,2,33260,50000,6768,45974,0,78,35,74,0.00,0.00,0.00,0.00
2017-10-16 16:10:00,2,50000,8,0.00,2,2,0,2,50000,50000,0,50000,0,77,23,0,0.00,0.00,0.00,0.00
2017-10-16 16:20:00,2,50000,0,0.00,2,2,0,2,50000,50000,0,50000,0,0,0,0,0.00,0.00,0.00,0.00
2017-10-16 16:30:00,2,50000,0,0.00,2,2,0,2,50000,50000,0,50000,0,0,0,0,0.00,0.00,0.00,0.00
2017-10-16 16:40:00,2,49843,0,0.00,2,2,0,2,48858,50000,352,50000,0,0,0,0,0.00,0.00,0.00,0.00
2017-10-16 16:50:00,2,49964,0,0.00,2,2,0,2,49641,50000,108,50000,0,0,0,0,0.00,0.00,0.00,0.00
2017-10-16 17:00:00,2,49827,0,0.00,2,2,0,2,48269,50000,519,50000,0,0,0,0,0.00,0.00,0.00,0.00
2017-10-16 17:10:00,2,50000,0,0.00,2,2,0,2,50000,50000,0,50000,0,0,0,0,0.00,0.00,0.00,0.00
2017-10-16 17:20:00,2,50000,0,0.00,2,2,0,2,50000,50000,0,50000,0,0,0,0,0.00,0.00,0.00,0.00
2017-10-16 17:30:00,2,50000,0,0.00,2,2,0,2,50000,50000,0,50000,0,0,0,0,0.00,0.00,0.00,0.00
2017-10-16 17:40:00,2,50000,0,0.00,2,2,0,2,50000,50000,0,50000,0,0,0,0,0.00,0.00,0.00,0.00
2017-10-16 17:50:00,2,50000,0,0.00,2,2,0,2,50000,50000,0,50000,0,0,0,0,0.00,0.00,0.00,0.00
2017-10-16 18:00:00,2,49093,0,0.00,2,2,0,2,40926,50000,2722,50000,0,0,0,0,0.00,0.00,0.00,0.00
2017-10-16 18:10:00,2,14233,71,0.26,2,2,0,2,8349,35779,7567,12934,71,71,0,71,0.00,0.50,0.13,0.23
2017-10-16 18:20:00,2,21679,71,0.05,2,2,0,2,13881,31775,5119,21109,71,71,0,71,0.00,0.25,0.07,0.03
2017-10-16 18:30:00,2,13281,75,1.60,2,2,0,2,1386,28967,11042,11807,71,77,3,77,0.00,4.70,1.96,0.45
2017-10-16 18:40:00,2,5223,71,2.44,2,2,0,2,1791,12367,3206,5065,71,71,0,71,0.05,6.10,2.42,1.38
2017-10-16 18:50:00,2,25002,71,0.01,2,2,0,2,11363,46691,11526,23406,71,71,0,71,0.00,0.05,0.02,0.00
2017-10-16 19:00:00,2,50000,23,0.00,2,2,0,2,50000,50000,0,50000,0,78,36,0,0.00,0.00,0.00,0.00
2017-10-16 19:10:00,2,50000,0,0.00,2,2,0,2,50000,50000,0,50000,0,0,0,0,0.00,0.00,0.00,0.00
2017-10-16 19:20:00,2,31826,36,0.12,2,2,0,2,7383,50000,18458,34250,0,71,36,36,0.00,0.60,0.19,0.00
2017-10-16 19:30:00,2,3451,71,1.93,2,2,0,2,1986,7469,1482,2940,71,71,0,71,0.90,2.90,0.58,1.88
2017-10-16 19:40:00,2,3814,71,1.45,2,2,0,2,2343,6107,1109,3677,71,71,0,71,0.40,2.75,0.74,1.65
2017-10-16 19:50:00,2,20129,71,0.18,2,2,0,2,7319,39582,10490,17876,71,71,0,71,0.00,0.60,0.21,0.08
2017-10-16 20:00:00,2,14260,71,0.33,2,2,0,2,7180,19894,4326,14710,71,71,0,71,0.05,0.80,0.22,0.35
2017-10-16 20:10:00,2,28718,71,0.14,2,2,0,2,10649,47838,13611,26502,71,71,0,71,0.00,0.70,0.21,0.05
2017-10-16 20:20:00,2,44657,42,0.01,2,2,0,2,34493,50000,5721,46748,0,78,36,56,0.00,0.05,0.02,0.00
2017-10-16 20:30:00,2,37337,65,0.05,2,2,0,2,25677,50000,8590,34602,0,77,22,71,0.00,0.20,0.07,0.00
2017-10-16 20:40:00,2,41163,51,0.01,2,2,0,2,27378,50000,7447,39568,0,77,33,71,0.00,0.10,0.03,0.00
2017-10-16 20:50:00,2,49433,55,0.00,2,2,0,2,46252,50000,1186,50000,0,78,36,78,0.00,0.00,0.00,0.00
2017-10-16 21:00:00,2,35715,68,0.04,2,2,0,2,25727,49091,7468,35060,0,77,23,77,0.00,0.20,0.07,0.00
2017-10-16 21:10:00,2,49306,7,0.00,2,2,0,2,45749,50000,1333,50000,0,71,21,0,0.00,0.00,0.00,0.00
2017-10-16 21:20:00,2,38613,43,0.03,2,2,0,2,13487,50000,12149,41484,0,71,35,71,0.00,0.20,0.06,0.00
2017-10-16 21:30:00,2,48872,46,0.00,2,2,0,2,45156,50000,1694,50000,0,78,38,77,0.00,0.00,0.00,0.00
2017-10-16 21:40:00,2,43093,28,0.01,2,2,0,2,32188,50000,6022,45314,0,71,35,0,0.00,0.05,0.02,0.00
2017-10-16 21:50:00,2,48313,54,0.01,2,2,0,2,43217,50000,2527,49851,0,78,35,77,0.00,0.10,0.03,0.00
2017-10-16 22:00:00,2,47550,0,0.00,2,2,0,2,40109,50000,3972,50000,0,0,0,0,0.00,0.00,0.00,0.00
2017-10-16 22:10:00,2,47822,22,0.01,2,2,0,2,34311,50000,4614,49820,0,77,33,0,0.00,0.05,0.02,0.00
2017-10-16 22:20:00,2,48126,0,0.00,2,2,0,2,41134,50000,2934,50000,0,0,0,0,0.00,0.00,0.00,0.00
2017-10-16 22:30:00,2,47937,28,0.01,2,2,0,2,41568,50000,2822,49392,0,71,35,0,0.00,0.05,0.02,0.00
2017-10-16 22:40:00,2,34966,66,0.03,2,2,0,2,18044,49004,10245,31893,0,78,22,71,0.00,0.15,0.06,0.00
2017-10-16 22:50:00,2,30591,71,0.08,2,2,0,2,16908,50000,11750,25200,71,71,0,71,0.00,0.30,0.10,0.03
2017-10-16 23:00:00,2,41882,44,0.01,2,2,0,2,6429,50000,12976,47312,0,77,36,71,0.00,0.15,0.05,0.00
2017-10-16 23:10:00,2,7491,71,0.73,2,2,0,2,3381,13506,3651,5602,71,71,0,71,0.05,1.50,0.54,0.68
2017-10-16 23:20:00,2,7754,71,0.83,2,2,0,2,2294,21039,4798,6662,71,71,0,71,0.05,2.00,0.64,0.80
2017-10-16 23:30:00,2,38519,14,0.00,2,2,0,2,14428,50000,14454,48058,0,71,28,0,0.00,0.00,0.00,0.00
2017-10-16 23:40:00,2,21786,71,0.15,2,2,0,2,11908,45601,10481,17277,71,71,0,71,0.00,0.50,0.17,0.05
2017-10-16 23:50:00,2,39783,43,0.07,2,2,0,2,17269,50000,9668,40535,0,71,35,71,0.00,0.60,0.18,0.00
